TimeCST,TemperatureF,Dew PointF,Humidity,Sea Level PressureIn,VisibilityMPH,Wind Direction,Wind SpeedMPH,Gust SpeedMPH,PrecipitationIn,Events,Conditions,WindDirDegrees,DateUTC
12:54 AM,10.0,-2.0,58,30.42,10.0,North,5.8,-,N/A,,Overcast,350,2013-01-22 06:54:00
1:54 AM,10.9,-2.0,56,30.42,10.0,Calm,Calm,-,N/A,,Overcast,0,2013-01-22 07:54:00
2:54 AM,10.9,-2.0,56,30.42,10.0,Calm,Calm,-,N/A,,Overcast,0,2013-01-22 08:54:00
3:54 AM,10.0,-0.9,61,30.42,10.0,ESE,3.5,-,N/A,,Overcast,110,2013-01-22 09:54:00
4:54 AM,10.0,-0.0,64,30.40,8.0,SSE,3.5,-,N/A,,Overcast,160,2013-01-22 10:54:00
5:35 AM,10.4,1.4,67,30.35,1.8,Calm,Calm,-,0.00,Snow,Light Snow,0,2013-01-22 11:35:00
5:54 AM,10.0,3.0,73,30.41,2.5,Calm,Calm,-,0.00,Snow,Light Snow,0,2013-01-22 11:54:00
6:09 AM,10.4,3.2,73,30.35,1.2,Calm,Calm,-,0.00,Snow,Light Snow,0,2013-01-22 12:09:00
6:44 AM,10.4,3.2,73,30.37,1.2,Calm,Calm,-,0.00,Snow,Light Snow,0,2013-01-22 12:44:00
6:54 AM,10.0,3.9,76,30.43,1.2,Calm,Calm,-,0.00,Snow,Light Snow,0,2013-01-22 12:54:00
7:16 AM,10.4,3.2,73,30.38,3.0,ENE,3.5,-,0.00,Snow,Light Snow,70,2013-01-22 13:16:00
7:54 AM,10.0,3.9,76,30.44,10.0,SSE,3.5,-,0.00,,Overcast,160,2013-01-22 13:54:00
8:54 AM,10.9,3.9,73,30.45,10.0,Calm,Calm,-,N/A,,Overcast,0,2013-01-22 14:54:00
9:54 AM,10.9,3.0,70,30.44,10.0,SSE,5.8,-,N/A,,Overcast,150,2013-01-22 15:54:00
10:54 AM,12.0,1.9,64,30.45,10.0,SSE,5.8,-,N/A,,Overcast,160,2013-01-22 16:54:00
11:54 AM,12.9,5.0,71,30.43,10.0,South,5.8,-,N/A,,Overcast,170,2013-01-22 17:54:00
12:54 PM,14.0,7.0,74,30.40,9.0,SSE,6.9,-,N/A,,Overcast,160,2013-01-22 18:54:00
1:54 PM,15.1,7.0,70,30.37,10.0,SSE,4.6,-,N/A,,Overcast,150,2013-01-22 19:54:00
2:54 PM,17.1,9.0,71,30.35,10.0,SSE,5.8,-,N/A,,Overcast,150,2013-01-22 20:54:00
3:54 PM,17.1,9.0,71,30.33,10.0,SSE,5.8,-,N/A,,Scattered Clouds,150,2013-01-22 21:54:00
4:54 PM,18.0,9.0,68,30.33,10.0,SE,5.8,-,N/A,,Clear,140,2013-01-22 22:54:00
5:54 PM,15.1,8.1,74,30.33,10.0,ESE,5.8,-,N/A,,Clear,120,2013-01-22 23:54:00
6:54 PM,14.0,8.1,77,30.32,10.0,SE,5.8,-,N/A,,Clear,140,2013-01-23 00:54:00
7:54 PM,14.0,8.1,77,30.32,10.0,SSE,6.9,-,N/A,,Clear,150,2013-01-23 01:54:00
8:54 PM,12.9,7.0,77,30.32,10.0,SSE,4.6,-,N/A,,Clear,150,2013-01-23 02:54:00
9:54 PM,12.0,7.0,80,30.31,10.0,South,4.6,-,N/A,,Clear,170,2013-01-23 03:54:00
10:54 PM,10.9,6.1,81,30.32,10.0,South,4.6,-,N/A,,Clear,170,2013-01-23 04:54:00
11:54 PM,10.9,6.1,81,30.30,10.0,South,4.6,-,N/A,,Clear,190,2013-01-23 05:54:00